| time (UTC) | temp F | wind direction | speed MPH | gust MPH | rain 1hr in | rain 24hr in | rain mn in | humidity % | barometer mb |
| 20260506044831 | 26 | 323 | 0.0 | 0.0 | 0.00 | 0.04 | 0.04 | 94 | 1016.4 |
| 20260506043829 | 26 | 323 | 0.0 | 0.0 | 0.00 | 0.04 | 0.04 | 94 | 1016.3 |
| 20260506042826 | 26 | 323 | 0.0 | 0.0 | 0.00 | 0.04 | 0.04 | 94 | 1016.4 |
| 20260506041827 | 26 | 311 | 0.0 | 0.0 | 0.00 | 0.04 | 0.04 | 94 | 1016.6 |
| 20260506040823 | 26 | 311 | 0.0 | 0.0 | 0.00 | 0.04 | 0.04 | 94 | 1016.3 |
| 20260506035819 | 26 | 311 | 0.0 | 0.0 | 0.00 | 0.04 | 0.04 | 94 | 1016.3 |
| 20260506034820 | 26 | 311 | 0.0 | 0.0 | 0.00 | 0.04 | 0.04 | 94 | 1016.2 |
| 20260506033819 | 26 | 311 | 0.0 | 0.0 | 0.00 | 0.04 | 0.04 | 94 | 1016.3 |
| 20260506032817 | 26 | 311 | 0.0 | 0.0 | 0.00 | 0.06 | 0.04 | 94 | 1016.1 |
| 20260506031815 | 26 | 311 | 0.0 | 0.0 | 0.00 | 0.10 | 0.04 | 94 | 1015.9 |
| 20260506030815 | 26 | 310 | 0.0 | 0.0 | 0.00 | 0.14 | 0.04 | 94 | 1015.8 |
| 20260506030259 | 26 | 310 | 0.0 | 0.0 | 0.00 | 0.15 | 0.04 | 94 | 1015.6 |
| 20260506024803 | 26 | 311 | 0.0 | 0.0 | 0.00 | 0.15 | 0.04 | 94 | 1015.3 |
| 20260506023757 | 26 | 311 | 0.0 | 1.0 | 0.00 | 0.15 | 0.04 | 94 | 1015.3 |
| 20260506022755 | 26 | 311 | 0.0 | 0.0 | 0.00 | 0.15 | 0.04 | 94 | 1015.0 |
| 20260506021754 | 26 | 308 | 0.0 | 1.0 | 0.00 | 0.15 | 0.04 | 94 | 1015.2 |
| 20260506021711 | 26 | 308 | 0.0 | 1.0 | 0.00 | 0.15 | 0.04 | 93 | 1014.9 |
| 20260506015751 | 26 | 353 | 0.0 | 0.0 | 0.00 | 0.15 | 0.04 | 93 | 1014.5 |
| 20260506014752 | 27 | 323 | 0.0 | 0.0 | 0.00 | 0.15 | 0.04 | 93 | 1014.5 |
| 20260506014236 | 26 | 323 | 0.0 | 3.0 | 0.00 | 0.15 | 0.04 | 93 | 1014.5 |
| 20260506013209 | 27 | 309 | 0.0 | 0.0 | 0.00 | 0.15 | 0.04 | 93 | 1014.4 |
| 20260506011736 | 27 | 31 | 0.0 | 3.0 | 0.00 | 0.15 | 0.04 | 93 | 1014.5 |
| 20260506011211 | 27 | 96 | 0.0 | 3.0 | 0.00 | 0.15 | 0.04 | 93 | 1014.4 |
| 20260506005733 | 28 | 143 | 0.0 | 1.0 | 0.00 | 0.15 | 0.04 | 94 | 1014.4 |
| 20260506005227 | 27 | 316 | 0.0 | 1.0 | 0.00 | 0.15 | 0.04 | 94 | 1014.3 |
| 20260506003733 | 27 | 316 | 0.0 | 1.0 | 0.00 | 0.15 | 0.04 | 94 | 1014.2 |
| 20260506002729 | 27 | 257 | 0.0 | 3.0 | 0.00 | 0.15 | 0.04 | 93 | 1014.2 |
| 20260506002653 | 27 | 304 | 1.0 | 4.0 | 0.00 | 0.15 | 0.04 | 93 | 1014.0 |
| 20260506000723 | 27 | 326 | 2.0 | 7.0 | 0.00 | 0.15 | 0.04 | 92 | 1014.0 |
| 20260505235722 | 28 | 44 | 0.0 | 2.0 | 0.00 | 0.15 | 0.04 | 93 | 1013.9 |
| 20260505234724 | 29 | 63 | 0.0 | 2.0 | 0.00 | 0.15 | 0.04 | 93 | 1013.5 |
| 20260505234207 | 29 | 324 | 0.0 | 2.0 | 0.00 | 0.15 | 0.04 | 93 | 1013.8 |
| 20260505233212 | 29 | 307 | 1.0 | 7.0 | 0.00 | 0.15 | 0.04 | 93 | 1013.7 |
| 20260505231721 | 29 | 322 | 2.0 | 9.0 | 0.00 | 0.16 | 0.04 | 93 | 1013.8 |
| 20260505230721 | 30 | 337 | 2.0 | 8.0 | 0.00 | 0.16 | 0.04 | 93 | 1013.4 |
| 20260505225713 | 30 | 32 | 0.0 | 3.0 | 0.00 | 0.16 | 0.04 | 94 | 1013.3 |
| 20260505224714 | 30 | 34 | 0.0 | 5.0 | 0.00 | 0.16 | 0.04 | 94 | 1013.0 |
| 20260505223713 | 31 | 39 | 0.0 | 5.0 | 0.00 | 0.16 | 0.04 | 94 | 1013.4 |
| 20260505222713 | 31 | 335 | 1.0 | 6.0 | 0.00 | 0.16 | 0.04 | 94 | 1013.4 |
| 20260505221712 | 31 | 319 | 1.0 | 4.0 | 0.00 | 0.16 | 0.04 | 94 | 1013.0 |
| 20260505220714 | 31 | 29 | 1.0 | 5.0 | 0.00 | 0.16 | 0.04 | 94 | 1012.8 |
| 20260505215714 | 31 | 110 | 1.0 | 6.0 | 0.00 | 0.16 | 0.04 | 93 | 1012.8 |
| 20260505214711 | 32 | 106 | 1.0 | 5.0 | 0.00 | 0.16 | 0.04 | 93 | 1012.9 |
| 20260505213712 | 32 | 41 | 1.0 | 8.0 | 0.00 | 0.16 | 0.04 | 93 | 1013.0 |
| 20260505212711 | 32 | 27 | 1.0 | 5.0 | 0.00 | 0.16 | 0.04 | 92 | 1013.0 |
| 20260505211711 | 33 | 64 | 0.0 | 4.0 | 0.00 | 0.16 | 0.04 | 93 | 1013.0 |
| 20260505210709 | 32 | 59 | 0.0 | 3.0 | 0.00 | 0.16 | 0.04 | 93 | 1013.2 |
| 20260505210144 | 32 | 307 | 0.0 | 7.0 | 0.00 | 0.16 | 0.04 | 93 | 1013.4 |
| 20260505205149 | 32 | 34 | 2.0 | 6.0 | 0.00 | 0.16 | 0.04 | 92 | 1013.5 |
| 20260505203710 | 32 | 97 | 1.0 | 6.0 | 0.00 | 0.16 | 0.04 | 92 | 1013.8 |
| 20260505202711 | 33 | 37 | 2.0 | 7.0 | 0.00 | 0.16 | 0.04 | 92 | 1013.9 |
| 20260505201709 | 33 | 42 | 1.0 | 6.0 | 0.00 | 0.16 | 0.04 | 92 | 1014.3 |
| 20260505200708 | 33 | 23 | 3.0 | 8.0 | 0.00 | 0.16 | 0.04 | 91 | 1014.2 |
| 20260505195707 | 33 | 108 | 2.0 | 6.0 | 0.00 | 0.16 | 0.04 | 90 | 1013.8 |
| 20260505195153 | 33 | 48 | 2.0 | 8.0 | 0.00 | 0.16 | 0.04 | 90 | 1014.0 |
| 20260505193705 | 33 | 75 | 3.0 | 8.0 | 0.00 | 0.16 | 0.04 | 91 | 1014.0 |
| 20260505192705 | 34 | 55 | 2.0 | 7.0 | 0.00 | 0.16 | 0.04 | 91 | 1013.9 |
| 20260505191705 | 34 | 81 | 2.0 | 7.0 | 0.00 | 0.16 | 0.04 | 92 | 1014.0 |
| 20260505190703 | 33 | 86 | 2.0 | 9.0 | 0.00 | 0.16 | 0.04 | 91 | 1014.0 |
| 20260505185657 | 33 | 112 | 2.0 | 7.0 | 0.00 | 0.16 | 0.04 | 91 | 1014.3 |
| 20260505184653 | 33 | 116 | 2.0 | 9.0 | 0.01 | 0.16 | 0.04 | 92 | 1014.4 |
| 20260505183649 | 33 | 112 | 2.0 | 9.0 | 0.01 | 0.16 | 0.04 | 92 | 1014.5 |
| 20260505183129 | 33 | 37 | 2.0 | 7.0 | 0.01 | 0.16 | 0.04 | 92 | 1014.7 |
| 20260505181649 | 33 | 30 | 1.0 | 6.0 | 0.01 | 0.16 | 0.04 | 93 | 1014.7 |
| 20260505180650 | 32 | 74 | 1.0 | 6.0 | 0.02 | 0.16 | 0.04 | 93 | 1014.8 |
| 20260505175651 | 32 | 34 | 1.0 | 6.0 | 0.02 | 0.16 | 0.04 | 93 | 1014.9 |
| 20260505175129 | 33 | 94 | 1.0 | 5.0 | 0.02 | 0.15 | 0.03 | 93 | 1014.9 |
| 20260505174125 | 32 | 121 | 1.0 | 5.0 | 0.02 | 0.15 | 0.03 | 93 | 1014.9 |
| 20260505172648 | 32 | 67 | 0.0 | 3.0 | 0.02 | 0.15 | 0.03 | 94 | 1015.2 |
| 20260505171649 | 32 | 25 | 1.0 | 4.0 | 0.02 | 0.15 | 0.03 | 93 | 1015.3 |
| 20260505170644 | 32 | 81 | 1.0 | 3.0 | 0.01 | 0.14 | 0.02 | 94 | 1015.2 |
| 20260505165643 | 31 | 70 | 1.0 | 5.0 | 0.01 | 0.14 | 0.02 | 94 | 1015.3 |
| 20260505164645 | 32 | 113 | 1.0 | 4.0 | 0.00 | 0.13 | 0.01 | 94 | 1015.3 |
| 20260505163643 | 31 | 82 | 1.0 | 4.0 | 0.00 | 0.13 | 0.01 | 94 | 1015.4 |
| 20260505163120 | 31 | 42 | 1.0 | 5.0 | 0.00 | 0.13 | 0.01 | 94 | 1015.4 |
| 20260505161626 | 31 | 34 | 0.0 | 3.0 | 0.00 | 0.13 | 0.01 | 94 | 1015.6 |
| 20260505160608 | 31 | 322 | 0.0 | 3.0 | 0.00 | 0.13 | 0.01 | 95 | 1015.6 |
| 20260505152602 | 31 | 41 | 0.0 | 2.0 | 0.00 | 0.13 | 0.01 | 95 | 1015.7 |
| 20260505152040 | 31 | 59 | 0.0 | 2.0 | 0.00 | 0.13 | 0.01 | 95 | 1015.7 |
| 20260505150601 | 31 | 354 | 0.0 | 2.0 | 0.00 | 0.13 | 0.01 | 95 | 1015.7 |
| 20260505140557 | 31 | 95 | 1.0 | 5.0 | 0.00 | 0.13 | 0.01 | 95 | 1015.9 |
| 20260505124553 | 31 | 35 | 0.0 | 5.0 | 0.00 | 0.13 | 0.01 | 96 | 1015.3 |
| 20260505123553 | 31 | 8 | 2.0 | 6.0 | 0.00 | 0.13 | 0.01 | 96 | 1015.3 |
| 20260505123026 | 31 | 329 | 1.0 | 5.0 | 0.00 | 0.13 | 0.01 | 96 | 1015.2 |
| 20260505121554 | 31 | 276 | 1.0 | 4.0 | 0.00 | 0.13 | 0.01 | 96 | 1015.3 |
| 20260505120554 | 31 | 44 | 2.0 | 9.0 | 0.00 | 0.13 | 0.01 | 95 | 1015.3 |
| 20260505115529 | 32 | 349 | 1.0 | 6.0 | 0.01 | 0.13 | 0.01 | 95 | 1015.2 |
| 20260505114519 | 32 | 311 | 0.0 | 2.0 | 0.01 | 0.13 | 0.01 | 96 | 1015.0 |
| 20260505113513 | 32 | 34 | 1.0 | 6.0 | 0.01 | 0.13 | 0.01 | 95 | 1014.9 |
| 20260505113439 | 32 | 318 | 2.0 | 9.0 | 0.01 | 0.13 | 0.01 | 95 | 1014.8 |
| 20260505111511 | 33 | 337 | 2.0 | 8.0 | 0.01 | 0.13 | 0.01 | 95 | 1014.5 |
| 20260505110509 | 34 | 354 | 1.0 | 9.0 | 0.01 | 0.13 | 0.01 | 95 | 1014.5 |
| 20260505100450 | 38 | 20 | 1.0 | 3.0 | 0.00 | 0.12 | 0.00 | 95 | 1013.8 |
| 20260505095450 | 38 | 322 | 1.0 | 5.0 | 0.00 | 0.12 | 0.00 | 95 | 1013.8 |
| 20260505094447 | 39 | 26 | 0.0 | 4.0 | 0.00 | 0.12 | 0.00 | 95 | 1013.8 |
| 20260505093927 | 39 | 321 | 0.0 | 0.0 | 0.00 | 0.12 | 0.00 | 95 | 1013.9 |
| 20260505092448 | 39 | 322 | 0.0 | 1.0 | 0.00 | 0.12 | 0.00 | 95 | 1013.9 |
| 20260505091447 | 39 | 321 | 0.0 | 2.0 | 0.00 | 0.12 | 0.00 | 95 | 1014.2 |
| 20260505090447 | 39 | 322 | 0.0 | 3.0 | 0.00 | 0.12 | 0.00 | 95 | 1014.0 |
| 20260505085447 | 39 | 321 | 0.0 | 2.0 | 0.00 | 0.12 | 0.00 | 95 | 1013.9 |
| 20260505084447 | 39 | 322 | 0.0 | 4.0 | 0.00 | 0.12 | 0.00 | 95 | 1014.0 |
| 20260505083446 | 38 | 322 | 2.0 | 4.0 | 0.00 | 0.12 | 0.00 | 95 | 1014.2 |
| 20260505082448 | 38 | 316 | 3.0 | 5.0 | 0.00 | 0.12 | 0.00 | 94 | 1014.3 |
| 20260505081448 | 39 | 316 | 3.0 | 6.0 | 0.00 | 0.12 | 0.00 | 94 | 1014.3 |
| 20260505080447 | 39 | 336 | 2.0 | 5.0 | 0.00 | 0.12 | 0.00 | 94 | 1014.3 |
| 20260505075446 | 39 | 326 | 1.0 | 3.0 | 0.00 | 0.12 | 0.00 | 94 | 1014.4 |
| 20260505074924 | 39 | 299 | 2.0 | 4.0 | 0.00 | 0.12 | 0.00 | 94 | 1014.4 |
| 20260505073441 | 39 | 316 | 3.0 | 5.0 | 0.00 | 0.12 | 0.00 | 94 | 1014.5 |
| 20260505072444 | 38 | 319 | 1.0 | 4.0 | 0.00 | 0.12 | 0.00 | 95 | 1014.8 |
| 20260505071441 | 38 | 315 | 0.0 | 1.0 | 0.00 | 0.12 | 0.00 | 94 | 1014.5 |
| 20260505070441 | 38 | 255 | 0.0 | 0.0 | 0.00 | 0.12 | 0.00 | 94 | 1014.7 |
| 20260505065916 | 38 | 255 | 0.0 | 1.0 | 0.00 | 0.12 | 0.00 | 94 | 1014.8 |
| 20260505064440 | 38 | 255 | 0.0 | 1.0 | 0.00 | 0.12 | 0.00 | 94 | 1014.8 |
| 20260505063439 | 38 | 255 | 0.0 | 1.0 | 0.00 | 0.12 | 0.00 | 94 | 1014.8 |
| 20260505062441 | 38 | 254 | 0.0 | 1.0 | 0.00 | 0.12 | 0.00 | 94 | 1014.8 |
| 20260505061439 | 38 | 255 | 0.0 | 1.0 | 0.00 | 0.12 | 0.00 | 94 | 1014.7 |
| 20260505060440 | 38 | 255 | 0.0 | 0.0 | 0.00 | 0.12 | 0.00 | 94 | 1014.8 |
| 20260505055440 | 38 | 255 | 0.0 | 0.0 | 0.00 | 0.12 | 0.12 | 94 | 1014.8 |
| 20260505054439 | 38 | 255 | 0.0 | 0.0 | 0.00 | 0.12 | 0.12 | 94 | 1014.8 |
| 20260505054344 | 38 | 255 | 0.0 | 0.0 | 0.00 | 0.12 | 0.12 | 94 | 1014.9 |
| 20260505052910 | 38 | 255 | 0.0 | 1.0 | 0.00 | 0.12 | 0.12 | 94 | 1014.9 |
| 20260505051910 | 38 | 255 | 0.0 | 1.0 | 0.00 | 0.12 | 0.12 | 94 | 1014.9 |
| 20260505050429 | 38 | 255 | 0.0 | 0.0 | 0.00 | 0.12 | 0.12 | 93 | 1014.9 |
| 20260505050355 | 38 | 255 | 0.0 | 0.0 | 0.00 | 0.12 | 0.12 | 93 | 1015.0 |